Vertical_Velocity
1 0 0 1 -3 -1 -1 -1 -2 -3 -1 -1 -4 -3 2 -8 -7 6 -2 -8 -0 -4 -2 -4 4 1 -0 0 1 2 6 -1 -10 5 -18 -4 1 -6 5 -2 -8 11 -2 -9 5
2 0 0 2 -0 1 -1 -2 2 -6 -2 -1 -3 -4 -1 -2 -1 -3 -5 -2 -3 -2 -6 0 0 2 3 2 1 13 6 -8 -4 -1 -1 -2 7 4 6 2 -1 -1 -8 -13 -12
3 -0 1 1 3 -1 2 -0 -3 2 -3 -1 -8 4 -9 -1 -10 2 -7 -1 -3 -2 1 -1 -0 4 6 7 -5 -9 -2 -5 -13 -3 5 1 -3 -2 5 -5 -4 -2 -16 -4 3
0 1 2 -2 1 3 -2 1 1 -0 -0 1 -8 -4 -1 -4 4 -5 -3 -4 -4 -1 -5 1 -1 5 6 4 -5 20 -2 2 -14 -6 1 -1 -2 -4 9 -12 1 -4 -0 -3 -5
-2 1 0 4 -3 1 2 3 1 -0 2 -1 -4 -2 -8 8 -30 24 -4 -1 -3 -3 -1 3 7 4 4 2 4 10 -5 2 -1 1 -3 4 -4 -6 -5 -9 -1 1 0 -2 -3
-3 -1 2 0 -0 0 1 -3 5 -5 3 -3 -0 -3 -1 9 -12 20 -12 -5 -1 3 -3 2 -3 -1 2 1 14 -4 1 -5 1 -5 -1 14 -9 28 -18 -4 -0 0 -4 -2 -6
-2 1 1 1 1 3 -2 2 -0 3 -3 0 -1 1 2 -47 -10 -6 11 -4 7 5 -2 2 1 12 1 -2 -0 1 8 -2 -5 -9 -9 10 3 -3 -13 -0 -4 -1 7 0 -1
3 -3 -1 1 -5 2 0 1 -3 8 -4 2 -1 0 -15 -13 7 6 4 1 2 -6 3 -6 -4 6 16 -5 -6 13 15 8 -17 2 -24 32 -23 -10 -4 16 1 1 -4 -0 -0
-1 1 2 3 -1 -1 -1 2 -3 9 -5 1 -1 -2 -22 6 -1 -3 -3 2 5 1 -3 -2 15 -1 6 9 5 1 -2 3 -14 -1 2 6 -10 -10 2 6 -2 -1 1 1 0
2 2 0 1 4 -6 3 2 -4 5 -3 -1 1 14 -10 -23 4 -1 2 -0 -1 5 7 6 2 5 5 10 -5 -4 3 -4 -0 -21 2 1 -6 -4 -8 7 -2 -4 -3 1 5
-0 2 2 2 5 -6 2 4 -4 -1 2 -29 6 -8 11 18 -20 -5 4 5 7 10 4 -3 13 -2 -7 -2 -2 3 7 3 -11 -13 21 -1 -1 -5 -4 3 2 3 2 -3 -6
2 6 -0 6 0 -0 5 -5 -7 35 -5 -1 -6 1 -3 -1 8 -21 22 11 12 -1 5 17 -2 -11 2 3 8 3 4 -12 -12 -5 25 -2 -10 -6 -0 -5 -1 -1 2 -6 2
-0 3 3 -0 4 1 4 -6 1 -8 7 -26 -14 -1 -10 20 -18 -23 28 -3 2 8 -0 6 -29 4 10 -1 11 -4 6 -4 10 -7 -6 9 -9 -1 -11 2 2 0 2 16 21
6 5 2 1 5 -1 -2 5 1 -4 5 -24 -5 -20 3 2 -5 -10 -4 8 8 -0 1 -4 -15 7 3 1 15 7 -1 5 2 11 2 18 -13 -5 -5 -5 2 -2 14 4 -3
-1 7 0 3 3 1 -3 -0 -8 -6 5 -15 4 15 -1 -5 -7 15 -7 24 -3 -10 40 -61 1 2 6 -15 10 -14 6 4 4 1 15 -15 20 -24 5 -4 2 4 4 -0 -2
3 0 4 3 18 3 -3 -1 2 4 -14 -5 1 -0 8 4 -5 -6 9 5 -1 10 3 -11 -8 15 -1 -5 5 -1 0 3 3 5 10 -15 20 -19 -1 -2 2 6 5 3 2
1 7 0 14 -11 6 -4 3 2 4 -4 -18 -8 4 1 -4 1 7 1 5 2 14 3 -0 -9 -7 6 10 -1 5 6 -2 -1 6 -12 -3 14 -16 3 5 -2 -0 5 3 1
4 4 0 3 4 3 4 3 10 -12 -8 -5 0 3 4 3 -9 -4 3 1 -1 6 3 5 -15 7 -6 -3 -1 -1 9 -3 -0 -0 -9 -1 -3 3 3 2 0 3 0 2 0
5 -2 8 3 12 12 0 7 -18 -5 -7 7 7 10 -5 1 13 11 1 -1 -4 -1 4 3 -4 -1 3 -0 7 -20 9 -14 2 1 11 -4 4 5 2 3 1 2 -1 1 0
2 9 3 13 3 11 6 -9 0 -0 6 12 9 4 1 -6 18 13 2 -7 -5 2 2 -11 2 -0 -4 4 -1 5 1 4 1 2 0 -5 -3 5 3 3 2 1 1 3 1
15 8 4 15 11 16 0 -8 -2 -7 17 16 -1 4 -4 1 8 -1 -11 -15 0 -3 -0 1 5 -5 8 1 -5 6 3 3 2 1 4 -0 -2 3 1 0 -1 1 1 2 3
2 1 5 19 2 -0 -0 -3 1 -6 0 -1 12 4 1 -1 1 4 -2 5 1 0 -1 5 -0 1 -12 -4 3 2 -2 2 8 -10 -2 5 -14 -0 -2 -1 -1 0 -0 -2 -3
-3 -1 14 4 -0 1 2 -2 -0 5 -4 1 1 3 -1 -0 4 4 -0 4 -2 -0 -2 -2 1 -0 -1 1 3 2 -4 0 1 4 -5 8 -7 2 1 1 -2 3 3 2 3
-4 -0 1 13 5 -1 0 -3 1 -3 -0 1 -3 9 7 3 0 -3 1 2 -1 1 -3 4 0 -4 -2 0 1 4 0 -1 4 6 -7 -5 -8 -3 2 -0 1 1 -0 2 -2
5 -2 -7 -2 3 1 4 0 1 1 -1 3 2 3 -5 2 2 -1 -0 5 2 -0 -1 3 1 5 -3 -1 2 1 0 -1 5 -6 9 -10 2 -3 0 4 4 3 -2 2 -1
-4 -1 5 -1 5 8 1 -4 -3 2 -4 -2 7 -3 0 -3 -10 -5 -0 1 -6 4 1 -0 -3 0 -4 -2 2 1 -1 0 -0 -3 1 2 -5 2 0 2 -1 1 1 0 0
-10 -2 6 -4 3 9 -7 -7 -6 -0 -1 -5 -4 1 4 -13 0 -2 -7 -3 -5 -7 -1 2 1 2 -5 1 -1 -1 -4 -1 -3 -0 7 4 -4 1 -1 0 2 2 -1 -1 -2
Height
1526 1526 1525 1524 1524 1523 1523 1523 1521 1520 1519 1517 1516 1514 1510 1506 1503 1501 1498 1499 1498 1496 1493 1494 1495 1496 1495 1493 1493 1493 1494 1489 1478 1472 1462 1457 1459 1462 1463 1465 1468 1469 1469 1469 1469
1523 1523 1522 1521 1520 1521 1520 1520 1519 1517 1517 1514 1514 1512 1510 1504 1500 1494 1496 1495 1495 1494 1492 1494 1494 1494 1494 1491 1489 1486 1485 1478 1471 1464 1461 1461 1464 1464 1465 1463 1465 1467 1468 1469 1470
1519 1519 1518 1518 1518 1517 1516 1516 1516 1514 1513 1511 1511 1510 1508 1504 1499 1492 1495 1496 1495 1494 1493 1494 1494 1492 1490 1488 1484 1481 1477 1473 1469 1467 1465 1463 1466 1466 1466 1463 1463 1464 1466 1466 1466
1514 1514 1513 1513 1513 1513 1513 1512 1512 1512 1510 1508 1508 1508 1506 1507 1502 1494 1494 1494 1493 1493 1492 1493 1493 1491 1487 1483 1480 1477 1472 1470 1468 1467 1466 1465 1464 1463 1462 1462 1462 1462 1462 1463 1465
1509 1509 1509 1508 1508 1507 1508 1509 1507 1508 1507 1505 1505 1505 1504 1506 1497 1493 1491 1492 1491 1491 1492 1491 1491 1488 1484 1479 1475 1470 1468 1466 1464 1461 1461 1460 1458 1459 1458 1461 1460 1459 1460 1460 1461
1504 1505 1503 1503 1503 1502 1502 1503 1503 1503 1503 1504 1502 1501 1501 1498 1491 1491 1489 1489 1488 1490 1490 1491 1489 1487 1484 1480 1477 1472 1468 1463 1461 1462 1459 1456 1450 1452 1452 1454 1454 1455 1456 1457 1458
1500 1499 1499 1498 1499 1499 1498 1498 1500 1500 1500 1501 1500 1498 1494 1486 1488 1488 1486 1485 1487 1488 1488 1489 1487 1487 1482 1477 1472 1468 1466 1461 1458 1457 1452 1454 1444 1443 1444 1443 1445 1448 1450 1453 1454
1496 1495 1496 1494 1494 1494 1494 1494 1496 1497 1497 1498 1496 1496 1484 1480 1480 1477 1479 1482 1482 1483 1484 1486 1486 1483 1480 1479 1473 1471 1464 1460 1447 1445 1440 1445 1436 1437 1437 1431 1433 1439 1444 1448 1451
1492 1491 1491 1491 1490 1490 1491 1490 1492 1494 1494 1495 1495 1493 1481 1474 1472 1470 1473 1476 1478 1479 1480 1482 1483 1480 1478 1477 1472 1465 1462 1455 1439 1435 1427 1430 1434 1435 1433 1432 1434 1436 1438 1441 1446
1487 1486 1486 1486 1487 1486 1486 1487 1489 1492 1491 1492 1492 1496 1473 1470 1471 1469 1472 1473 1476 1476 1478 1481 1480 1474 1470 1476 1467 1458 1450 1437 1431 1424 1420 1421 1425 1428 1431 1429 1431 1435 1436 1437 1440
1482 1481 1482 1483 1483 1482 1485 1487 1494 1493 1485 1483 1478 1468 1465 1467 1467 1469 1470 1471 1472 1472 1470 1472 1473 1468 1463 1461 1456 1452 1450 1445 1434 1430 1429 1422 1420 1418 1423 1425 1425 1425 1429 1433 1436
1476 1477 1478 1479 1479 1481 1482 1482 1487 1489 1478 1471 1468 1464 1463 1467 1461 1463 1470 1469 1467 1463 1464 1466 1456 1456 1457 1455 1453 1448 1445 1439 1433 1429 1430 1425 1419 1414 1417 1418 1419 1419 1418 1424 1429
1472 1472 1472 1474 1476 1475 1475 1480 1483 1486 1483 1460 1456 1450 1452 1459 1453 1453 1461 1459 1459 1456 1456 1456 1445 1445 1445 1445 1447 1442 1443 1439 1435 1429 1425 1422 1418 1413 1413 1411 1409 1410 1412 1416 1423
1466 1467 1468 1470 1472 1471 1472 1479 1482 1488 1485 1447 1442 1437 1438 1448 1446 1442 1447 1453 1451 1448 1448 1445 1444 1444 1439 1437 1436 1438 1434 1434 1432 1432 1438 1426 1425 1411 1402 1390 1387 1400 1409 1418 1428
1459 1461 1462 1464 1465 1465 1470 1476 1483 1490 1483 1428 1430 1435 1438 1441 1435 1432 1433 1443 1442 1440 1448 1436 1441 1441 1438 1436 1434 1433 1432 1438 1439 1447 1446 1434 1428 1414 1401 1389 1389 1398 1410 1423 1431
1453 1454 1458 1456 1461 1463 1468 1475 1485 1490 1465 1431 1424 1430 1437 1439 1437 1435 1435 1437 1436 1437 1436 1432 1432 1434 1436 1437 1435 1433 1433 1433 1437 1442 1451 1428 1429 1419 1402 1389 1385 1401 1417 1427 1432
1445 1447 1448 1450 1452 1458 1466 1474 1481 1470 1431 1424 1419 1419 1426 1432 1434 1434 1433 1429 1432 1438 1431 1425 1424 1424 1430 1437 1435 1437 1442 1450 1459 1451 1437 1422 1422 1408 1418 1400 1403 1416 1427 1433 1436
1439 1439 1439 1444 1448 1453 1461 1470 1460 1425 1425 1409 1414 1411 1417 1422 1424 1423 1425 1426 1420 1424 1427 1430 1434 1421 1423 1430 1436 1436 1442 1463 1457 1448 1435 1440 1426 1414 1423 1424 1423 1424 1434 1438 1440
1433 1431 1435 1435 1440 1446 1453 1454 1431 1415 1411 1415 1415 1415 1414 1415 1419 1416 1417 1418 1414 1416 1430 1433 1432 1426 1428 1425 1433 1437 1440 1441 1452 1452 1444 1429 1421 1424 1421 1429 1434 1434 1439 1441 1446
1429 1427 1427 1430 1436 1442 1444 1436 1420 1414 1414 1409 1409 1409 1417 1412 1410 1408 1414 1409 1409 1411 1415 1423 1433 1435 1431 1434 1433 1434 1434 1444 1458 1453 1435 1413 1404 1429 1430 1433 1438 1441 1444 1446 1446
1423 1423 1422 1427 1435 1436 1429 1424 1419 1414 1415 1412 1406 1407 1408 1411 1412 1413 1414 1406 1410 1411 1418 1422 1436 1441 1438 1436 1434 1437 1437 1437 1439 1444 1447 1431 1420 1429 1434 1438 1442 1441 1443 1443 1442
1410 1414 1420 1424 1433 1430 1425 1421 1417 1408 1412 1410 1409 1407 1408 1410 1415 1404 1410 1415 1418 1420 1428 1438 1438 1439 1435 1428 1429 1427 1426 1431 1440 1441 1437 1436 1434 1426 1433 1436 1439 1440 1441 1444 1447
1403 1411 1417 1419 1414 1420 1418 1418 1417 1412 1407 1405 1407 1412 1411 1415 1415 1408 1409 1425 1426 1429 1431 1438 1446 1441 1434 1435 1428 1430 1429 1430 1433 1436 1440 1444 1437 1429 1433 1437 1439 1438 1442 1447 1449
1401 1410 1415 1415 1411 1408 1412 1412 1412 1412 1408 1412 1410 1410 1409 1410 1411 1416 1416 1428 1430 1431 1434 1437 1436 1438 1440 1435 1431 1432 1429 1427 1431 1440 1436 1434 1432 1428 1435 1435 1434 1440 1444 1448 1452
1395 1397 1398 1404 1408 1406 1408 1406 1405 1408 1411 1416 1416 1407 1404 1407 1410 1420 1417 1428 1432 1433 1435 1436 1436 1433 1429 1424 1425 1424 1425 1424 1425 1425 1432 1431 1432 1429 1428 1433 1438 1443 1447 1450 1454
1390 1391 1396 1393 1401 1404 1402 1398 1399 1404 1407 1409 1406 1405 1404 1409 1410 1415 1417 1422 1429 1430 1434 1434 1438 1439 1437 1428 1426 1425 1421 1421 1423 1423 1423 1424 1425 1425 1427 1432 1439 1446 1450 1453 1457
1387 1387 1387 1386 1391 1398 1391 1391 1392 1399 1405 1404 1407 1406 1408 1410 1411 1414 1414 1418 1419 1424 1430 1433 1436 1439 1437 1429 1427 1430 1423 1421 1420 1420 1421 1427 1425 1433 1436 1445 1449 1452 1455 1458 1460